P/2023 X3 ( PanSTARRS )

Japanese version
Home page
Updated on January 31, 2024

---------------------------------------------------------------------

* Profile

Discovery Date December 7, 2023
Magnitude 21.1 mag
Discoverer Pan-STARRS 1 telescope (Haleakala)

* Orbital Elements

Epoch 2023 Sept. 13.0 TT = JDT 2460200.5
T 2024 Apr. 21.43917 TT                                 Rudenko
q   3.0303715            (2000.0)            P               Q
n   0.11232091     Peri.   40.72128     -0.21867317     -0.97335389
a   4.2543083      Node    62.01335     +0.87377025     -0.22680852
e   0.2876935      Incl.    4.48306     +0.43440488     -0.03376537
P   8.77
>From 55 observations 2023 Oct. 22-Dec. 18, mean residual 0".3.

* Magnitudes Graph

        m1 = 14.5 + 5 log d + 10.0 log r

---------------------------------------------------------------------

The orbital elements are published on M.P.E.C. 2024-A43.
The magnitudes graphs are made with Comet for Windows.

---------------------------------------------------------------------

Copyright(C) Seiichi Yoshida (comet@aerith.net). All rights reserved.